Location: Newark
(39.5667°N, 8.9833°E)
Time: 02:50:55
(UTC+00:00)

Vanguard 3 - All Passes

Search period start: 20 October 2019 00:00
Search period end: 30 October 2019 00:00
Orbit: 508 x 3262 km, 33.3° (Epoch: 18 October)

Date Brightness Start Highest point End Pass type
(mag) Time Alt. Az. Time Alt. Az. Time Alt. Az.
20 Oct - 00:35:36 10° WSW 00:39:01 35° S 00:43:21 10° ESE night (unlit)
20 Oct - 02:46:05 10° WSW 02:50:12 33° S 02:56:25 10° SE visible
20 Oct - 04:57:52 10° WSW 05:02:15 18° SSW 05:08:14 10° SSE visible
20 Oct - 23:22:30 10° SW 23:25:42 27° SSE 23:29:03 10° ESE night (unlit)
21 Oct - 01:32:59 10° WSW 01:36:36 35° S 01:41:33 10° ESE visible
21 Oct - 03:44:01 10° WSW 03:48:06 22° SSW 03:53:57 10° SSE visible
21 Oct - 22:09:21 10° SSW 22:12:20 19° SSE 22:15:04 10° ESE night (unlit)
22 Oct - 00:19:49 10° WSW 00:23:11 34° S 00:27:07 10° ESE night (unlit)
22 Oct - 02:30:38 10° WSW 02:34:18 27° S 02:39:25 10° SE visible
22 Oct - 04:43:31 10° SW 04:46:12 13° SSW 04:49:25 10° S visible
22 Oct - 20:56:22 10° SSW 20:58:49 14° SSE 21:00:57 10° SE night (unlit)
22 Oct - 23:06:26 10° SW 23:09:50 29° S 23:13:10 10° ESE night (unlit)
23 Oct - 01:17:22 10° WSW 01:20:44 30° S 01:25:02 10° SE night (unlit)
23 Oct - 03:28:59 10° WSW 03:32:09 17° SSW 03:36:15 10° SSE visible
23 Oct - 21:52:49 10° SW 21:56:28 24° SSE 21:59:32 10° ESE night (unlit)
24 Oct - 00:04:00 10° WSW 00:07:21 33° S 00:10:59 10° ESE night (unlit)
24 Oct - 02:15:16 10° WSW 02:18:24 21° SSW 02:22:25 10° SE visible
24 Oct - 20:39:02 10° SSW 20:42:55 19° SSE 20:45:57 10° ESE visible
24 Oct - 22:50:19 10° WSW 22:54:01 32° S 22:57:20 10° ESE night (unlit)
25 Oct - 01:01:46 10° WSW 01:04:54 26° S 01:08:35 10° SE night (unlit)
25 Oct - 03:14:39 10° SW 03:16:13 11° SSW 03:17:56 10° S visible
25 Oct - 19:25:28 10° SSW 19:29:06 15° SSE 19:32:01 10° SE visible
25 Oct - 21:36:15 10° SW 21:40:36 29° S 21:43:58 10° ESE night (unlit)
25 Oct - 23:48:07 10° WSW 23:51:32 31° S 23:54:56 10° ESE night (unlit)
26 Oct - 02:00:04 10° SW 02:02:30 16° SSW 02:05:22 10° SSE visible
26 Oct - 18:13:09 10° S 18:14:59 11° SSE 18:16:40 10° SE visible
26 Oct - 20:21:54 10° SW 20:27:00 25° SSE 20:30:40 10° ESE visible
26 Oct - 22:34:07 10° WSW 22:38:11 34° S 22:41:34 10° ESE night (unlit)
27 Oct - 00:46:09 10° WSW 00:49:01 21° SSW 00:52:10 10° SE night (unlit)
27 Oct - 19:07:30 10° SSW 19:13:08 20° SSE 19:17:10 10° ESE visible
27 Oct - 21:19:38 10° WSW 21:24:45 34° S 21:28:24 10° ESE night (unlit)
27 Oct - 23:32:10 10° WSW 23:35:41 29° S 23:38:57 10° SE night (unlit)
28 Oct - 01:45:19 10° SW 01:46:34 11° SSW 01:47:54 10° S night (unlit)
28 Oct - 17:53:30 10° SSW 17:58:56 16° SSE 18:03:04 10° ESE visible
28 Oct - 20:04:46 10° SW 20:11:05 31° S 20:15:16 10° ESE visible
28 Oct - 22:17:49 10° WSW 22:22:20 37° S 22:25:49 10° ESE night (unlit)
29 Oct - 00:30:31 10° WSW 00:33:07 18° SSW 00:35:46 10° SSE night (unlit)
29 Oct - 16:41:05 10° S 16:44:22 12° SSE 16:47:14 10° SE daylight
29 Oct - 18:49:45 10° SW 18:57:08 27° SSE 19:01:59 10° ESE visible
29 Oct - 21:02:57 10° WSW 21:08:51 40° S 21:12:49 10° ESE visible
29 Oct - 23:16:08 10° WSW 23:19:49 28° SSW 23:23:00 10° SE night (unlit)
